Location: Balsareny
(41.8670°N, 1.8830°E)
Time: 19:42:52
(UTC+02:00)

ISS - Visible Passes

Search period start: 15 May 2026 00:00
Search period end: 25 May 2026 00:00
Orbit: 414 x 424 km, 51.6° (Epoch: 15 May)

Date Brightness Start Highest point End Pass type
(mag) Time Alt. Az. Time Alt. Az. Time Alt. Az.
15 May -1.1 00:11:07 10° NW 00:13:29 18° N 00:14:19 16° NNE visible
15 May -1.1 21:45:20 10° WNW 21:47:53 20° NNW 21:50:24 10° NE visible
15 May -0.9 23:23:26 10° NW 23:25:36 16° N 23:27:45 10° NE visible
16 May -1.0 01:00:01 10° NW 01:01:11 19° NNW 01:01:11 19° NNW visible
16 May -0.9 22:35:37 10° NW 22:37:42 15° N 22:39:46 10° NE visible
17 May -1.7 00:12:28 10° NW 00:15:06 25° NNE 00:15:06 25° NNE visible
17 May -0.9 21:47:39 10° NW 21:49:47 16° N 21:51:54 10° NE visible
17 May -1.4 23:24:53 10° NW 23:27:29 20° NNE 23:29:02 15° NE visible
18 May -0.9 01:01:20 10° NW 01:01:58 15° NW 01:01:58 15° NW visible
18 May -1.2 22:37:16 10° NNW 22:39:37 17° N 22:41:57 10° NE visible
19 May -2.1 00:13:42 10° NW 00:15:53 34° NNW 00:15:53 34° NNW visible
19 May -1.1 21:49:32 10° NW 21:51:41 16° N 21:53:50 10° NE visible
19 May -2.5 23:26:06 10° NW 23:29:13 34° NNE 23:29:50 31° NE visible
20 May -1.9 22:38:32 10° NW 22:41:23 25° NNE 22:43:47 13° ENE visible
21 May -1.8 00:15:05 10° WNW 00:16:43 26° WNW 00:16:43 26° WNW visible
21 May -1.6 21:50:55 10° NW 21:53:31 20° NNE 21:56:06 10° ENE visible
21 May -3.9 23:27:21 10° NW 23:30:42 82° NE 23:30:42 82° NE visible
22 May -3.2 22:39:41 10° NW 22:42:57 50° NNE 22:44:42 24° E visible
23 May -1.1 00:16:59 10° W 00:17:38 13° W 00:17:38 13° W visible
23 May -2.5 21:52:04 10° NW 21:55:10 34° NNE 21:58:15 10° E visible
23 May -2.7 23:28:53 10° WNW 23:31:40 33° SW 23:31:40 33° SW visible
24 May -3.6 22:41:00 10° WNW 22:44:18 60° SW 22:45:45 29° SSE visible
